Meteo Giornale » Osservazioni meteo Egitto » Cairo

ore: 20:30 - Osservazioni Meteo Cairo
Lat. 30° 8' N Lon. 31° 24' E Alt. 64 metri s.l.m.

molto_nuvoloso Africa/Cairo

17 °C

Molto Nuvoloso

Temp. 24 Ore

15 °C

21 °C

Nord

13 Km/h

Dew point 12 °C

Umidità 72 %

Visibilità  6 Km

Il sole sorge alle ore 06:40

Il sole tramonta alle ore 16:56

Data e Ora Cielo e Fenomeni T °C DP °C Um. % Pres. hPa Vis. km Vento km/h
Oggi h: 20:30 molto_nuvoloso Molto Nuvoloso 17 12 72 1022 6 N 13
Oggi h: 20:00 molto_nuvoloso Molto Nuvoloso 17 12 72 1022 6 N/NO 16.7
Oggi h: 19:30 molto_nuvoloso Molto Nuvoloso 18 12 67 1022 6 N 18.5
Oggi h: 19:00 molto_nuvoloso Molto Nuvoloso 18 13 72 1022 6 N/NO 18.5
Oggi h: 18:30 molto_nuvoloso Molto Nuvoloso 18 13 72 1021 6 N/NO 20.3
Oggi h: 18:00 molto_nuvoloso Molto Nuvoloso 19 13 68 1021 6 N/NO 18.5
Oggi h: 17:30 molto_nuvoloso Molto Nuvoloso 19 14 72 1021 6 N/NO 16.7
Oggi h: 17:00 molto_nuvoloso Molto Nuvoloso 19 14 72 1021 6 N/NO 16.7
Oggi h: 16:30 molto_nuvoloso Molto Nuvoloso 20 14 68 1020 6 N/NO 14.8
Oggi h: 16:00 molto_nuvoloso Molto Nuvoloso 20 14 68 1020 6 NO 16.7
Oggi h: 15:30 molto_nuvoloso Molto Nuvoloso 21 14 64 1020 6 N/NO 16.7
Oggi h: 15:00 molto_nuvoloso Molto Nuvoloso 21 13 60 1020 6 N/NO 16.7
Oggi h: 14:30 nuvoloso Nuvoloso 21 13 60 1020 6 N/NO 22.2
Oggi h: 14:00 nuvoloso Nuvoloso 21 13 60 1020 6 N/NO 22.2
Oggi h: 13:30 nuvoloso Nuvoloso 21 13 60 1020 6 N/NO 16.7
Oggi h: 13:00 nuvoloso Nuvoloso 20 14 68 1020 6 N 14.8
Oggi h: 12:30 foschia Foschia 20 14 68 1021 4 N/NO 13
Oggi h: 12:00 foschia Foschia 20 15 72 1021 4 N/NO 14.8
Oggi h: 11:30 foschia Foschia 19 14 72 1021 4 NO 14.8
Oggi h: 11:00 foschia Foschia 19 14 72 1021 4 NO 14.8
Oggi h: 10:30 foschia Foschia 19 14 72 1022 4 N/NO 14.8
Oggi h: 10:00 foschia Foschia 18 14 77 1022 4 NO 13
Oggi h: 09:30 foschia Foschia 18 15 82 1022 3 N/NO 11.1
Oggi h: 09:00 foschia Foschia 17 15 88 1022 3 N/NO 9.3
Oggi h: 08:30 foschia Foschia 16 15 93 1022 2 NO 7.4
Oggi h: 08:00 foschia Foschia 16 15 93 1022 2 NO 7.4
Oggi h: 07:30 foschia Foschia 16 15 93 1021 2 NO 7.4
Oggi h: 07:00 foschia Foschia 15 15 100 1021 2 N/NO 7.4
Oggi h: 06:30 foschia Foschia 16 15 93 1021 2 NO 7.4
Oggi h: 06:00 foschia Foschia 16 16 100 1021 2 N/NO 7.4
Oggi h: 05:30 foschia Foschia 16 16 100 1021 2 NO 11.1
Oggi h: 05:00 foschia Foschia 16 16 100 1020 2 NO 11.1
Oggi h: 04:30 foschia Foschia 16 16 100 1020 1 NO 9.3
Oggi h: 04:00 foschia Foschia 17 16 93 1020 1 NO 11.1
Oggi h: 03:30 foschia Foschia 17 16 93 1020 1 NO 9.3
Oggi h: 03:00 foschia Foschia 17 16 93 1020 1 NO 7.4
Oggi h: 02:30 nebbia Nebbia 17 16 93 1020 0.8 NO 7.4
Oggi h: 02:00 nebbia Nebbia 17 16 93 1020 0.8 N 5.5
Oggi h: 01:30 foschia Foschia 17 16 93 1021 2 NO 7.4
Oggi h: 01:00 foschia Foschia 17 16 93 1021 2 NO 7.4
Oggi h: 00:30 foschia Foschia 18 16 88 1021 3 NO 7.4
Oggi h: 00:00 foschia Foschia 18 16 88 1020 3 O/NO 7.4
Ieri h: 23:30 foschia Foschia 18 16 88 1020 3 N 5.5
Ieri h: 23:00 foschia Foschia 19 16 82 1021 3 N 5.5
Ieri h: 22:30 foschia Foschia 19 16 82 1021 3 N 5.5
Ieri h: 22:00 foschia Foschia 19 15 77 1021 3 N 5.5
Ieri h: 21:30 foschia Foschia 19 14 72 1020 3 NO 7.4
Ieri h: 21:00 foschia Foschia 20 14 68 1020 3 NO 7.4
Ieri h: 20:30 foschia Foschia 20 13 64 1020 4 O/NO 9.3
Ieri h: 20:00 foschia Foschia 20 12 59 1020 4 N 5.5